period_start,C,m1,H,J0,J1,J2,J3,J4,J5,JA,JB,JC,JD,JJ,JK,JN,#
2015-04-09 00:01:24,0.08,3.95,0.00,23.69,27.48,30.31,4.86,28.32,1035.20,2028.97,2065.10,2397.98,2558.10,349.95,353.05,30.79,0000 0000 0000 0000 000000
2015-04-09 00:06:25,0.09,3.96,0.00,23.74,27.50,30.35,4.87,28.39,1035.36,2028.97,2064.51,2397.45,2557.98,350.78,353.89,30.82,0000 0000 0000 0000 000000
2015-04-09 00:11:26,0.06,3.96,0.00,23.88,27.50,30.38,4.85,28.23,1035.49,2028.99,2063.93,2397.01,2557.38,350.43,353.64,30.85,0000 0000 0000 0000 000000
2015-04-09 00:16:27,0.09,3.96,0.00,24.21,27.52,30.48,4.86,28.14,1035.30,2028.96,2063.15,2396.70,2556.99,349.93,352.61,30.88,0000 0000 0000 0000 000000
2015-04-09 00:21:28,0.08,3.96,0.00,23.82,27.53,30.52,4.88,28.15,1035.23,2028.95,2062.84,2396.04,2556.36,350.05,353.05,30.91,0000 0000 0000 0000 000000
2015-04-09 00:26:29,0.05,3.97,0.00,23.52,27.55,30.18,4.86,28.12,1035.23,2028.91,2062.05,2395.95,2556.00,350.17,353.67,30.94,0000 0000 0000 0000 000000
2015-04-09 00:31:30,0.11,3.97,0.00,23.86,27.55,29.93,4.85,28.16,1035.20,2028.95,2061.50,2395.34,2555.90,349.44,352.45,30.97,0000 0000 0000 0000 000000
2015-04-09 00:36:32,0.05,3.97,0.00,23.68,27.54,30.00,4.85,28.17,1035.20,2028.95,2060.99,2395.02,2555.14,350.20,353.52,31.00,0000 0000 0000 0000 000000
2015-04-09 00:41:33,0.08,3.97,0.00,23.63,27.52,30.14,4.89,28.24,1035.23,2028.95,2060.42,2394.78,2554.99,350.55,353.74,31.02,0000 0000 0000 0000 000000
2015-04-09 00:46:35,0.08,3.98,0.00,23.71,27.52,30.14,4.83,28.16,1035.19,2028.95,2059.99,2394.06,2554.32,349.95,353.01,31.05,0000 0000 0000 0000 000000
2015-04-09 00:51:36,0.05,3.98,0.00,23.78,27.52,30.19,4.83,28.10,1035.21,2028.98,2059.23,2393.99,2554.01,349.66,352.68,31.08,0000 0000 0000 0000 000000
2015-04-09 00:56:37,0.10,3.98,0.00,23.94,27.52,30.27,4.81,28.13,1035.21,2028.97,2058.87,2393.37,2553.59,349.55,352.34,31.11,0000 0000 0000 0000 000000
2015-04-09 01:01:39,0.07,3.98,0.00,24.33,27.52,30.32,4.88,28.16,1035.33,2028.98,2058.13,2393.01,2553.02,350.30,352.73,31.14,0000 0000 0000 0000 000000
2015-04-09 01:06:40,0.04,3.98,0.00,23.89,27.54,30.33,4.86,28.25,1035.45,2028.95,2057.83,2392.81,2552.76,349.75,352.98,31.17,0000 0000 0000 0000 000000
2015-04-09 01:11:41,0.11,3.99,0.00,23.90,27.54,30.08,4.86,28.22,1035.26,2028.94,2057.05,2392.09,2552.04,350.55,353.62,31.20,0000 0000 0000 0000 000000
2015-04-09 01:16:43,0.03,3.99,0.00,23.99,27.54,29.96,4.88,28.16,1035.27,2028.97,2056.75,2391.99,2551.99,350.26,353.21,31.23,0000 0000 0000 0000 000000
2015-04-09 01:21:44,0.08,3.99,0.00,23.80,27.53,30.10,4.86,28.20,1035.22,2028.98,2056.05,2391.81,2551.55,349.77,353.21,31.26,0000 0000 0000 0000 000000
2015-04-09 01:26:45,0.10,3.99,0.00,23.86,27.52,30.11,4.77,28.23,1035.44,2028.98,2055.64,2391.06,2551.01,349.52,352.62,31.29,0000 0000 0000 0000 000000
2015-04-09 01:31:46,0.08,4.00,0.00,24.28,27.52,30.22,4.80,28.00,1035.61,2028.96,2054.94,2390.75,2550.35,349.85,352.65,31.32,0000 0000 0000 0000 000000
2015-04-09 01:36:47,0.08,4.00,0.00,24.30,27.53,30.25,4.89,28.30,1035.65,2028.89,2054.10,2390.05,2549.93,350.53,353.04,31.35,0000 0000 0000 0000 000000
2015-04-09 01:41:48,0.11,4.00,0.00,24.22,27.53,30.12,4.83,28.18,1035.64,2028.84,2053.40,2389.63,2549.13,349.95,352.57,31.38,0000 0000 0000 0000 000000
2015-04-09 01:46:50,0.06,4.00,0.00,24.26,27.52,30.14,4.75,28.15,1035.65,2028.86,2052.99,2389.02,2548.97,349.56,351.96,31.41,0000 0000 0000 0000 000000
2015-04-09 01:51:51,0.11,4.01,0.00,24.31,27.52,30.17,4.82,28.27,1035.63,2028.93,2052.20,2388.86,2548.17,350.11,352.59,31.43,0000 0000 0000 0000 000000
2015-04-09 01:56:52,0.10,4.01,0.00,24.52,27.52,30.22,4.80,28.03,1035.46,2028.94,2051.73,2388.08,2547.84,349.84,352.12,31.46,0000 0000 0000 0000 000000
2015-04-09 02:01:54,0.06,4.01,0.00,24.56,27.52,30.07,4.77,28.02,1035.30,2028.96,2051.04,2387.97,2547.10,350.00,352.02,31.49,0000 0000 0000 0000 000000
2015-04-09 02:06:55,0.13,4.02,0.00,24.49,27.52,30.13,4.85,28.20,1035.47,2028.97,2050.29,2387.19,2546.86,350.44,352.56,31.52,0000 0000 0000 0000 000000
2015-04-09 02:11:56,0.09,4.02,0.00,24.43,27.52,30.19,4.77,28.07,1035.61,2028.98,2049.59,2386.93,2546.08,349.34,351.77,31.55,0000 0000 0000 0000 000000
2015-04-09 02:16:57,0.12,4.02,0.00,24.49,27.52,30.22,4.89,28.24,1035.58,2028.96,2048.80,2386.11,2545.53,350.28,352.90,31.58,0000 0000 0000 0000 000000
2015-04-09 02:21:58,0.10,4.02,0.00,24.60,27.52,30.17,4.84,28.23,1035.61,2028.96,2047.91,2385.67,2544.98,350.20,352.55,31.61,0000 0000 0000 0000 000000
2015-04-09 02:27:00,0.11,4.03,0.00,24.60,27.51,30.23,4.82,28.17,1035.62,2028.98,2047.07,2385.03,2544.25,349.60,352.08,31.64,0000 0000 0000 0000 000000
2015-04-09 02:32:01,0.08,4.03,0.00,24.62,27.50,30.22,4.74,28.06,1035.56,2028.99,2046.71,2384.67,2543.91,349.36,351.60,31.67,0000 0000 0000 0000 000000
2015-04-09 02:37:02,0.10,4.03,0.00,24.65,27.50,30.17,4.81,28.29,1035.63,2028.98,2045.96,2384.01,2543.10,350.07,352.42,31.70,0000 0000 0000 0000 000000
2015-04-09 02:42:03,0.15,4.04,0.00,24.56,27.50,30.17,4.82,28.17,1035.60,2028.99,2045.04,2383.42,2542.51,349.61,351.83,31.73,0000 0000 0000 0000 000000
2015-04-09 02:47:04,0.10,4.04,0.00,24.58,27.50,30.17,4.87,28.19,1035.60,2028.98,2044.10,2382.82,2541.85,350.08,352.32,31.76,0000 0000 0000 0000 000000
2015-04-09 02:52:06,0.12,4.04,0.00,24.69,27.50,30.16,4.88,28.16,1035.52,2028.98,2043.55,2382.05,2541.06,350.04,352.14,31.79,0000 0000 0000 0000 000000
2015-04-09 02:57:07,0.16,4.05,0.00,24.72,27.50,30.12,4.91,28.26,1035.28,2028.99,2042.57,2381.44,2540.33,350.14,352.17,31.82,0000 0000 0000 0000 000000
2015-04-09 03:02:08,0.10,4.05,0.00,24.64,27.49,30.14,4.91,28.22,1035.21,2028.99,2041.59,2380.85,2539.76,350.32,352.54,31.84,0000 0000 0000 0000 000000
2015-04-09 03:07:10,0.12,4.06,0.00,24.69,27.47,30.15,4.80,28.12,1035.19,2028.99,2040.77,2380.06,2538.88,349.62,351.55,31.87,0000 0000 0000 0000 000000
2015-04-09 03:12:11,0.12,4.06,0.00,24.76,27.47,30.10,4.84,28.27,1035.19,2028.99,2039.98,2379.51,2538.07,349.80,351.76,31.90,0000 0000 0000 0000 000000
2015-04-09 03:17:13,0.11,4.06,0.00,24.76,27.47,30.03,4.86,28.31,1035.20,2028.99,2039.01,2378.91,2537.60,349.67,351.64,31.93,0000 0000 0000 0000 000000
2015-04-09 03:22:14,0.13,4.07,0.00,24.65,27.47,30.08,4.76,28.23,1035.19,2028.99,2038.01,2378.08,2536.93,349.97,352.07,31.96,0000 0000 0000 0000 000000
2015-04-09 03:27:16,0.15,4.07,0.00,24.77,27.46,30.10,4.79,28.24,1035.19,2028.99,2037.07,2377.50,2536.09,349.96,351.94,31.99,0000 0000 0000 0000 000000
2015-04-09 03:32:17,0.11,4.08,0.00,24.82,27.45,29.97,4.78,28.05,1035.19,2028.99,2036.10,2376.93,2535.34,349.93,351.77,32.02,0000 0000 0000 0000 000000
2015-04-09 03:37:18,0.14,4.08,0.00,24.83,27.45,30.03,4.93,28.38,1035.19,2029.00,2035.18,2376.10,2534.70,351.19,352.76,32.05,0000 0000 0000 0000 000000
2015-04-09 03:42:19,0.15,4.08,0.00,24.81,27.44,29.99,4.93,28.36,1035.19,2029.00,2034.14,2375.39,2533.85,350.50,352.44,32.08,0000 0000 0000 0000 000000
2015-04-09 03:47:20,0.15,4.09,0.00,24.80,27.42,30.05,4.82,28.10,1035.17,2029.00,2033.02,2374.59,2533.00,349.88,351.86,32.11,0000 0000 0000 0000 000000
2015-04-09 03:52:22,0.14,4.09,0.00,24.89,27.42,29.97,4.83,28.22,1035.17,2029.01,2031.98,2373.85,2532.14,349.87,351.60,32.14,0000 0000 0000 0000 000000
2015-04-09 03:57:23,0.18,4.10,0.00,24.86,27.42,29.87,4.82,28.24,1035.17,2029.01,2030.79,2372.96,2531.28,350.21,351.93,32.17,0000 0000 0000 0000 000000
2015-04-09 04:02:24,0.18,4.10,0.00,24.86,27.40,29.88,4.88,28.23,1035.17,2029.01,2029.53,2372.09,2530.43,350.43,352.31,32.20,0000 0000 0000 0000 000000
2015-04-09 04:07:25,0.16,4.11,0.00,24.89,27.40,29.77,4.72,28.11,1035.17,2029.05,2028.50,2371.38,2529.67,349.90,351.82,32.23,0000 0000 0000 0000 000000
2015-04-09 04:12:26,0.14,4.11,0.00,24.94,27.38,29.69,4.87,28.27,1035.17,2029.04,2027.45,2370.63,2528.82,350.29,351.85,32.25,0000 0000 0000 0000 000000
2015-04-09 04:17:28,0.13,4.12,0.00,24.89,27.37,29.72,4.76,28.07,1035.17,2029.12,2026.40,2369.96,2528.03,350.29,351.86,32.28,0000 0000 0000 0000 000000
2015-04-09 04:22:29,0.25,4.12,0.00,24.90,27.35,29.70,4.77,28.17,1035.17,2029.50,2025.45,2369.15,2527.29,349.52,351.31,32.31,0000 0000 0000 0000 000000
2015-04-09 04:27:30,0.20,4.13,0.00,24.92,27.35,29.65,4.90,28.27,1035.17,2029.76,2024.32,2368.44,2526.44,350.38,352.10,32.34,0000 0000 0000 0000 000000
2015-04-09 04:32:31,0.16,4.13,0.00,24.93,27.32,29.68,4.82,28.13,1035.12,2029.92,2023.24,2367.77,2525.60,349.59,351.31,32.37,0000 0000 0000 0000 000000
2015-04-09 04:37:32,0.13,4.14,0.00,24.91,27.31,29.67,4.79,27.98,1035.13,2029.94,2022.15,2367.02,2524.76,349.82,351.58,32.40,0000 0000 0000 0000 000000
2015-04-09 04:42:34,0.17,4.14,0.00,24.96,27.30,29.64,4.77,27.94,1035.09,2029.96,2020.97,2366.24,2523.90,350.24,352.06,32.43,0000 0000 0000 0000 000000
2015-04-09 04:47:35,0.19,4.15,0.00,24.89,27.29,29.57,4.84,27.98,1035.09,2029.97,2019.75,2365.48,2523.04,350.07,351.76,32.46,0000 0000 0000 0000 000000
2015-04-09 04:52:36,0.16,4.15,0.00,24.94,27.27,29.52,4.81,28.08,1034.90,2029.99,2018.68,2364.71,2522.15,350.17,351.81,32.49,0000 0000 0000 0000 000000
2015-04-09 04:57:37,0.13,4.16,0.00,25.01,27.26,29.52,4.81,28.01,1034.78,2029.99,2017.58,2363.93,2521.32,350.23,351.80,32.52,0000 0000 0000 0000 000000
2015-04-09 05:02:38,0.17,4.16,0.00,24.95,27.25,29.47,4.83,28.07,1034.94,2029.99,2016.43,2363.07,2520.49,349.74,351.51,32.55,0000 0000 0000 0000 000000
2015-04-09 05:07:40,0.16,4.17,0.00,24.95,27.23,29.50,4.78,28.13,1034.75,2029.99,2015.38,2362.22,2519.66,348.90,350.70,32.58,0000 0000 0000 0000 000000
2015-04-09 05:12:41,0.14,4.17,0.00,24.98,27.22,29.44,4.78,28.02,1034.71,2029.99,2014.15,2361.59,2518.86,349.72,351.29,32.61,0000 0000 0000 0000 000000
2015-04-09 05:17:42,0.13,4.18,0.00,24.95,27.20,29.48,4.78,27.99,1034.71,2029.99,2012.97,2360.82,2518.00,349.73,351.28,32.64,0000 0000 0000 0000 000000
2015-04-09 05:22:43,0.15,4.18,0.00,24.99,27.20,29.42,4.83,28.18,1034.70,2030.01,2011.94,2360.04,2517.14,350.02,351.49,32.66,0000 0000 0000 0000 000000
2015-04-09 05:27:44,0.18,4.19,0.00,25.03,27.18,29.46,4.85,28.08,1034.69,2030.02,2010.87,2359.26,2516.35,349.97,351.26,32.69,0000 0000 0000 0000 000000
2015-04-09 05:32:46,0.15,4.19,0.00,24.97,27.17,29.41,4.78,28.13,1034.70,2030.03,2009.81,2358.58,2515.63,349.53,351.06,32.72,0000 0000 0000 0000 000000
2015-04-09 05:37:47,0.11,4.19,0.00,25.01,27.15,29.39,4.76,28.03,1034.70,2030.08,2008.75,2357.93,2514.95,349.95,351.53,32.75,0000 0000 0000 0000 000000
2015-04-09 05:42:48,0.15,4.20,0.00,25.05,27.15,29.36,4.84,28.13,1034.69,2030.09,2007.87,2357.11,2514.13,349.87,351.45,32.78,0000 0000 0000 0000 000000
2015-04-09 05:47:49,0.15,4.20,0.00,25.03,27.13,29.34,4.83,28.19,1034.68,2030.21,2007.02,2356.64,2513.53,350.25,351.67,32.81,0000 0000 0000 0000 000000
2015-04-09 05:52:51,0.08,4.21,0.00,25.00,27.12,29.35,4.81,28.07,1034.68,2030.19,2006.14,2356.02,2512.99,349.78,351.24,32.84,0000 0000 0000 0000 000000
2015-04-09 05:57:52,0.21,4.21,0.00,25.04,27.12,29.33,4.71,28.07,1034.68,2030.42,2005.40,2355.52,2512.32,349.56,351.02,32.87,0000 0000 0000 0000 000000
2015-04-09 06:02:53,0.11,4.21,0.00,25.01,27.10,29.32,4.78,28.06,1034.68,2030.66,2004.63,2355.01,2511.96,349.76,351.33,32.90,0000 0000 0000 0000 000000
2015-04-09 06:07:55,0.15,4.22,0.00,24.98,27.10,29.33,4.86,28.12,1034.68,2030.93,2004.00,2354.63,2511.21,350.05,351.54,32.93,0000 0000 0000 0000 000000
2015-04-09 06:12:56,0.09,4.22,0.00,25.05,27.07,29.34,4.71,27.88,1034.66,2030.97,2003.18,2354.01,2510.86,349.27,350.80,32.96,0000 0000 0000 0000 000000
2015-04-09 06:17:58,0.14,4.23,0.00,25.05,27.07,29.30,4.79,27.94,1034.65,2030.98,2002.46,2353.47,2510.08,350.22,351.63,32.99,0000 0000 0000 0000 000000
2015-04-09 06:22:59,0.08,4.23,0.00,24.83,27.06,29.33,4.80,27.97,1034.67,2030.98,2001.69,2353.01,2509.69,349.77,351.61,33.02,0000 0000 0000 0000 000000
2015-04-09 06:28:00,0.11,4.23,0.00,24.65,27.05,29.23,4.74,27.95,1034.68,2030.98,2000.94,2352.46,2509.02,349.33,351.43,33.05,0000 0000 0000 0000 000000
2015-04-09 06:33:02,0.09,4.24,0.00,24.86,27.04,29.16,4.83,27.85,1034.68,2030.99,2000.11,2352.00,2508.61,350.52,352.32,33.08,0000 0000 0000 0000 000000
2015-04-09 06:38:03,0.12,4.24,0.00,24.94,27.02,29.14,4.86,28.01,1034.68,2030.99,1999.48,2351.49,2508.01,350.19,351.76,33.10,0000 0000 0000 0000 000000
2015-04-09 06:43:04,0.10,4.24,0.00,25.00,27.01,29.20,4.82,27.85,1034.68,2030.99,1998.65,2351.00,2507.35,350.47,351.92,33.13,0000 0000 0000 0000 000000
2015-04-09 06:48:05,0.07,4.24,0.00,24.81,27.00,29.20,4.80,27.84,1034.68,2030.99,1998.02,2350.57,2507.00,349.89,351.54,33.16,0000 0000 0000 0000 000000
2015-04-09 06:53:07,0.11,4.25,0.00,24.25,26.98,29.33,4.84,27.96,1034.68,2031.00,1997.21,2350.01,2506.40,350.45,352.83,33.19,0000 0000 0000 0000 000000
2015-04-09 06:58:08,0.07,4.25,0.00,23.99,26.96,29.26,4.83,28.00,1034.68,2031.01,1996.60,2349.77,2506.00,349.66,352.45,33.22,0000 0000 0000 0000 000000
2015-04-09 07:03:09,0.08,4.25,0.00,24.24,26.93,29.13,4.90,28.02,1034.64,2031.03,1996.01,2349.10,2505.80,350.41,352.38,33.25,0000 0000 0000 0000 000000
2015-04-09 07:08:11,0.11,4.26,0.00,24.18,26.91,29.25,4.81,28.12,1034.66,2031.15,1995.56,2349.00,2505.08,349.90,352.17,33.28,0000 0000 0000 0000 000000
2015-04-09 07:13:12,0.07,4.26,0.00,24.72,26.90,29.36,4.81,27.95,1034.46,2031.27,1995.01,2348.75,2504.97,350.33,351.69,33.31,0000 0000 0000 0000 000000
2015-04-09 07:18:13,0.11,4.26,0.00,24.70,26.90,29.47,4.76,27.82,1034.60,2031.35,1994.44,2348.05,2504.31,349.52,351.39,33.34,0000 0000 0000 0000 000000
2015-04-09 07:23:15,0.04,4.26,0.00,24.20,26.90,29.53,4.82,27.71,1034.66,2031.35,1993.91,2347.96,2503.99,349.71,351.83,33.37,0000 0000 0000 0000 000000
2015-04-09 07:28:16,0.13,4.27,0.00,23.97,26.88,29.56,4.81,27.97,1034.64,2031.38,1993.11,2347.33,2503.67,349.87,352.58,33.40,0000 0000 0000 0000 000000
2015-04-09 07:33:17,0.09,4.27,0.00,23.93,26.87,29.45,4.81,27.94,1034.66,2031.67,1992.87,2347.01,2503.05,350.17,352.91,33.43,0000 0000 0000 0000 000000
2015-04-09 07:38:18,0.10,4.27,0.00,24.22,26.85,29.38,4.90,27.89,1034.67,2031.88,1992.13,2346.98,2502.99,350.36,352.63,33.46,0000 0000 0000 0000 000000
2015-04-09 07:43:19,0.09,4.28,0.00,24.22,26.85,29.42,4.81,28.12,1034.68,2031.90,1991.97,2346.45,2502.52,350.08,352.29,33.49,0000 0000 0000 0000 000000
2015-04-09 07:48:21,0.08,4.28,0.00,24.73,26.85,29.45,4.81,27.83,1034.68,2031.95,1991.40,2346.01,2502.02,349.80,351.68,33.51,0000 0000 0000 0000 000000
2015-04-09 07:53:22,0.03,4.28,0.00,24.56,26.85,29.50,4.81,27.94,1034.68,2031.91,1990.93,2345.87,2501.81,350.11,352.13,33.54,0000 0000 0000 0000 000000
2015-04-09 07:58:23,0.14,4.28,0.00,24.16,26.85,29.60,4.79,28.13,1034.68,2031.89,1990.13,2345.14,2501.08,349.36,352.02,33.57,0000 0000 0000 0000 000000
2015-04-09 08:03:25,0.02,4.28,0.00,24.02,26.85,29.64,4.85,28.04,1034.68,2031.94,1989.87,2345.00,2501.00,350.44,353.03,33.60,0000 0000 0000 0000 000000
2015-04-09 08:08:26,0.07,4.29,0.00,24.02,26.84,29.57,4.80,27.94,1034.68,2031.98,1989.13,2344.96,2500.68,349.99,352.64,33.63,0000 0000 0000 0000 000000
2015-04-09 08:13:27,0.08,4.29,0.00,24.37,26.82,29.49,4.80,27.95,1034.68,2031.99,1989.00,2344.48,2500.11,349.85,352.09,33.66,0000 0000 0000 0000 000000
2015-04-09 08:18:29,0.05,4.29,0.00,24.71,26.82,29.51,4.76,28.05,1034.68,2031.99,1988.58,2344.03,2500.00,349.67,351.46,33.69,0000 0000 0000 0000 000000
2015-04-09 08:23:30,0.03,4.29,0.00,24.71,26.83,29.50,4.78,27.94,1034.69,2031.99,1988.02,2343.99,2499.75,349.77,351.51,33.72,0000 0000 0000 0000 000000
2015-04-09 08:28:32,0.11,4.29,0.00,24.31,26.85,29.58,4.80,28.13,1034.70,2031.98,1987.62,2343.54,2499.06,349.73,352.19,33.75,0000 0000 0000 0000 000000
2015-04-09 08:33:33,0.04,4.30,0.00,24.10,26.84,29.68,4.84,28.03,1034.75,2031.98,1987.02,2343.02,2498.98,349.93,352.57,33.78,0000 0000 0000 0000 000000
2015-04-09 08:38:34,0.04,4.30,0.00,23.99,26.83,29.66,4.84,28.08,1034.91,2031.99,1986.76,2342.98,2498.64,349.92,352.64,33.81,0000 0000 0000 0000 000000
2015-04-09 08:43:35,0.12,4.30,0.00,24.18,26.82,29.60,4.83,28.08,1034.72,2031.99,1986.04,2342.40,2498.02,349.88,352.36,33.84,0000 0000 0000 0000 000000
2015-04-09 08:48:37,0.10,4.30,0.00,24.41,26.82,29.56,4.86,28.09,1034.70,2031.99,1985.39,2341.98,2497.41,350.51,352.62,33.87,0000 0000 0000 0000 000000
2015-04-09 08:53:38,0.13,4.31,0.00,24.72,26.82,29.53,4.83,28.00,1034.69,2031.99,1984.62,2341.19,2496.83,349.98,351.68,33.90,0000 0000 0000 0000 000000
2015-04-09 08:58:39,0.13,4.31,0.00,24.64,26.83,29.57,4.79,27.96,1034.75,2031.99,1983.80,2340.54,2496.04,349.89,351.83,33.93,0000 0000 0000 0000 000000
2015-04-09 09:03:41,0.07,4.31,0.00,24.21,26.85,29.63,4.81,27.91,1034.72,2031.98,1983.03,2340.02,2495.71,350.01,352.53,33.95,0000 0000 0000 0000 000000
2015-04-09 09:08:42,0.03,4.32,0.00,24.02,26.85,29.68,4.85,28.08,1034.68,2031.98,1982.86,2339.98,2495.07,350.19,352.79,33.98,0000 0000 0000 0000 000000
2015-04-09 09:13:43,0.09,4.32,0.00,24.07,26.84,29.59,4.99,28.22,1034.70,2031.97,1982.11,2339.58,2495.00,350.22,352.74,34.01,0000 0000 0000 0000 000000
2015-04-09 09:18:45,0.03,4.32,0.00,24.27,26.82,29.48,4.79,27.95,1034.70,2031.98,1981.99,2339.03,2494.90,349.89,352.15,34.04,0000 0000 0000 0000 000000
2015-04-09 09:23:46,0.08,4.32,0.00,24.51,26.82,29.54,4.86,28.20,1034.70,2031.98,1981.53,2338.97,2494.20,350.25,352.33,34.07,0000 0000 0000 0000 000000
2015-04-09 09:28:47,0.07,4.32,0.00,24.75,26.83,29.54,4.78,28.02,1034.72,2031.97,1981.01,2338.34,2493.98,349.93,351.78,34.10,0000 0000 0000 0000 000000
2015-04-09 09:33:48,0.10,4.33,0.00,24.34,26.85,29.59,4.79,28.02,1034.71,2031.97,1980.48,2338.00,2493.27,349.80,352.21,34.13,0000 0000 0000 0000 000000
2015-04-09 09:38:50,0.01,4.33,0.00,24.04,26.84,29.64,4.90,28.18,1034.70,2031.96,1980.00,2337.93,2493.00,349.98,352.77,34.16,0000 0000 0000 0000 000000
2015-04-09 09:43:51,0.12,4.33,0.00,23.92,26.82,29.58,4.86,28.07,1034.69,2031.95,1979.33,2337.25,2492.91,349.71,352.42,34.19,0000 0000 0000 0000 000000
2015-04-09 09:48:52,0.05,4.33,0.00,23.85,26.81,29.53,4.84,27.99,1034.68,2031.99,1979.00,2337.01,2492.35,349.81,352.44,34.22,0000 0000 0000 0000 000000
2015-04-09 09:53:53,0.02,4.33,0.00,24.09,26.80,29.42,4.83,27.93,1034.68,2031.98,1978.78,2337.00,2492.00,349.91,352.25,34.25,0000 0000 0000 0000 000000
2015-04-09 09:58:54,0.04,4.33,0.00,24.22,26.78,29.40,4.81,28.09,1034.67,2031.99,1978.15,2336.93,2492.00,349.94,352.29,34.28,0000 0000 0000 0000 000000
2015-04-09 10:03:55,0.09,4.34,0.00,24.65,26.77,29.42,4.84,28.04,1034.67,2031.99,1978.00,2336.24,2491.67,349.90,351.80,34.31,0000 0000 0000 0000 000000
2015-04-09 10:08:57,0.07,4.34,0.00,24.45,26.77,29.48,4.78,28.07,1034.68,2031.99,1977.35,2336.00,2491.03,349.73,352.01,34.34,0000 0000 0000 0000 000000
2015-04-09 10:13:58,0.02,4.34,0.00,24.07,26.77,29.56,4.79,28.03,1034.68,2031.99,1976.99,2335.88,2490.97,350.10,352.68,34.36,0000 0000 0000 0000 000000
2015-04-09 10:18:59,0.14,4.34,0.00,23.90,26.77,29.54,4.84,28.10,1034.67,2031.99,1976.36,2335.20,2490.37,349.95,352.78,34.39,0000 0000 0000 0000 000000
2015-04-09 10:24:01,0.01,4.35,0.00,23.87,26.75,29.49,4.83,28.09,1034.68,2031.99,1976.00,2335.00,2490.02,350.13,352.84,34.42,0000 0000 0000 0000 000000
2015-04-09 10:29:02,0.01,4.35,0.00,24.19,26.75,29.37,4.78,27.88,1034.68,2031.99,1975.86,2334.99,2489.99,350.03,352.51,34.45,0000 0000 0000 0000 000000
2015-04-09 10:34:03,0.11,4.35,0.00,24.34,26.73,29.40,4.79,27.99,1034.68,2031.99,1975.13,2334.60,2489.59,349.97,352.32,34.48,0000 0000 0000 0000 000000
2015-04-09 10:39:04,0.06,4.35,0.00,24.59,26.73,29.42,4.83,28.11,1034.68,2031.99,1974.78,2334.02,2489.02,349.25,351.34,34.51,0000 0000 0000 0000 000000
2015-04-09 10:44:06,0.08,4.35,0.00,24.24,26.73,29.48,4.89,28.13,1034.68,2031.99,1974.03,2333.89,2488.75,350.69,353.08,34.54,0000 0000 0000 0000 000000
2015-04-09 10:49:07,0.12,4.36,0.00,23.91,26.72,29.52,4.81,28.05,1034.68,2031.99,1973.50,2333.24,2488.09,349.88,352.62,34.57,0000 0000 0000 0000 000000
2015-04-09 10:54:08,0.02,4.36,0.00,23.81,26.72,29.49,4.84,28.07,1034.68,2031.99,1972.99,2333.00,2487.98,350.02,353.07,34.60,0000 0000 0000 0000 000000
2015-04-09 10:59:09,0.11,4.36,0.00,24.11,26.70,29.39,4.74,28.07,1034.68,2032.00,1972.34,2332.83,2487.43,349.68,351.88,34.63,0000 0000 0000 0000 000000
2015-04-09 11:04:11,0.07,4.36,0.00,23.90,26.70,29.36,4.84,28.08,1034.68,2032.03,1971.98,2332.17,2487.01,350.29,352.97,34.66,0000 0000 0000 0000 000000
2015-04-09 11:09:12,0.09,4.36,0.00,23.97,26.70,29.38,4.82,28.17,1034.68,2032.03,1971.25,2331.96,2486.62,349.67,352.39,34.69,0000 0000 0000 0000 000000
2015-04-09 11:14:13,0.13,4.37,0.00,24.64,26.70,29.40,4.82,28.07,1034.68,2032.01,1970.58,2331.15,2485.90,350.10,351.92,34.72,0000 0000 0000 0000 000000
2015-04-09 11:19:14,0.12,4.37,0.00,24.39,26.72,29.42,4.84,28.01,1034.69,2032.00,1969.76,2330.62,2485.08,349.74,351.90,34.75,0000 0000 0000 0000 000000
2015-04-09 11:24:16,0.09,4.38,0.00,23.94,26.72,29.60,4.88,28.01,1034.69,2032.00,1969.02,2330.01,2484.58,350.43,353.15,34.78,0000 0000 0000 0000 000000
2015-04-09 11:29:17,0.07,4.38,0.00,23.77,26.72,29.65,4.81,27.96,1034.69,2032.00,1968.37,2329.83,2484.01,349.57,352.52,34.80,0000 0000 0000 0000 000000
2015-04-09 11:34:18,0.10,4.38,0.00,23.76,26.72,29.58,4.87,27.90,1034.69,2032.00,1967.83,2329.07,2483.76,350.50,353.47,34.83,0000 0000 0000 0000 000000
2015-04-09 11:39:19,0.08,4.38,0.00,24.03,26.72,29.49,4.76,27.73,1034.69,2032.00,1967.04,2328.89,2483.04,349.55,352.26,34.86,0000 0000 0000 0000 000000
2015-04-09 11:44:21,0.11,4.39,0.00,23.82,26.72,29.47,4.87,28.08,1034.68,2032.00,1966.76,2328.10,2482.35,350.62,353.49,34.89,0000 0000 0000 0000 000000
2015-04-09 11:49:22,0.10,4.39,0.00,24.13,26.72,29.47,4.83,28.19,1034.68,2032.00,1966.04,2327.79,2481.71,350.29,352.45,34.92,0000 0000 0000 0000 000000
2015-04-09 11:54:23,0.13,4.39,0.00,24.53,26.74,29.49,4.83,28.01,1034.68,2032.00,1965.21,2326.98,2480.86,349.91,351.85,34.95,0000 0000 0000 0000 000000
2015-04-09 11:59:24,0.20,3.08,0.00,24.07,26.76,29.60,4.21,24.32,1034.68,2033.00,2472.32,2661.61,2858.93,308.70,310.96,0.00,0000 0000 0000 0000 000002
2015-04-09 12:04:25,0.13,0.00,0.00,23.73,26.77,29.70,4.82,26.94,1034.68,2035.00,3485.16,3331.12,3615.15,349.61,352.63,0.01,0000 0000 0000 0000 000000
2015-04-09 12:09:27,0.13,0.00,0.00,23.79,26.77,29.64,4.87,27.05,1034.68,2035.00,3482.19,3329.62,3613.20,350.55,353.35,0.04,0000 0000 0000 0000 000000
2015-04-09 12:14:28,0.14,0.00,0.00,23.99,26.75,29.47,4.89,27.00,1034.68,2035.00,3480.05,3328.43,3611.42,350.50,352.97,0.07,0000 0000 0000 0000 000000
2015-04-09 12:19:30,0.15,0.01,0.00,23.73,26.75,29.48,4.80,27.23,1034.68,2035.00,3477.94,3327.23,3609.79,349.39,352.52,0.10,0000 0000 0000 0000 000000
2015-04-09 12:24:31,0.16,0.01,0.00,24.29,26.76,29.51,4.77,26.98,1034.66,2035.00,3475.89,3325.81,3608.04,350.21,352.70,0.13,0000 0000 0000 0000 000000
2015-04-09 12:29:32,0.15,0.02,0.00,24.33,26.77,29.54,4.75,26.99,1034.65,2035.00,3473.77,3324.42,3606.33,349.68,351.70,0.16,0000 0000 0000 0000 000000
2015-04-09 12:34:34,0.16,0.02,0.00,23.79,26.77,29.64,4.77,26.97,1034.64,2035.00,3471.43,3322.94,3604.66,349.72,352.52,0.19,0000 0000 0000 0000 000000
2015-04-09 12:39:35,0.17,0.03,0.00,23.59,26.77,29.67,4.84,26.93,1034.63,2035.00,3468.99,3321.46,3603.00,350.32,353.28,0.22,0000 0000 0000 0000 000000
2015-04-09 12:44:36,0.17,0.03,0.00,23.89,26.75,29.54,4.75,26.88,1034.61,2035.00,3466.44,3319.82,3601.25,349.23,352.15,0.25,0000 0000 0000 0000 000000
2015-04-09 12:49:37,0.14,0.04,0.00,23.68,26.75,29.45,4.83,26.90,1034.62,2035.00,3464.49,3318.53,3599.76,350.11,353.03,0.28,0000 0000 0000 0000 000000
2015-04-09 12:54:39,0.12,0.04,0.00,23.58,26.75,29.50,4.81,27.07,1034.62,2035.00,3462.68,3317.45,3598.49,349.59,352.86,0.31,0000 0000 0000 0000 000000
2015-04-09 12:59:40,0.11,0.04,0.00,23.76,26.75,29.51,4.80,27.14,1034.64,2035.00,3460.84,3316.32,3597.36,349.92,352.88,0.34,0000 0000 0000 0000 000000